This is the latest recevied weather packets stored in our database for station/object I2HLY-4. If no packets are shown the sender has not sent any weather packets the latest 10 day(s).
| Time | Temp. | Humidity | Pressure | Rain* | Wind** | Luminosity | Snow |
|---|---|---|---|---|---|---|---|
| 1777504632 | 9.44° C | 97% | 1021.3 hPa | 0 mm | - | - | - |
| 1777503742 | 10° C | 97% | 1021.4 hPa | 0 mm | - | - | - |
| 1777502834 | 10° C | 97% | 1021.1 hPa | 0 mm | - | - | - |
| 1777501946 | 10° C | 96% | 1020.9 hPa | 0 mm | - | - | - |
| 1777501038 | 10° C | 96% | 1020.9 hPa | 0 mm | - | - | - |
| 1777500149 | 10° C | 96% | 1020.6 hPa | 0 mm | - | - | - |
| 1777498337 | 10° C | 95% | 1020.4 hPa | 6.1 mm | - | - | - |
| 1777497435 | 10° C | 94% | 1020.3 hPa | 6.1 mm | - | - | - |
| 1777496540 | 10.56° C | 93% | 1020.3 hPa | 7.11 mm | - | - | - |
| 1777495638 | 10.56° C | 91% | 1020.2 hPa | 6.1 mm | - | - | - |
| 1777494736 | 11.11° C | 90% | 1019.9 hPa | 1.02 mm | - | - | - |
| 1777493836 | 11.11° C | 89% | 1019.8 hPa | 0 mm | - | - | - |
| 1777492932 | 11.11° C | 87% | 1019.8 hPa | 0 mm | - | - | - |
| 1777492045 | 11.11° C | 88% | 1019.5 hPa | 0 mm | - | - | - |
| 1777491145 | 11.11° C | 88% | 1019.4 hPa | 0 mm | - | - | - |
| 1777490236 | 11.67° C | 87% | 1019.2 hPa | 0 mm | - | - | - |
| 1777489339 | 11.67° C | 88% | 1019.1 hPa | 0 mm | - | - | - |
| 1777488439 | 11.67° C | 87% | 1019 hPa | 0 mm | - | - | - |
| 1777487539 | 11.67° C | 87% | 1018.8 hPa | 0 mm | - | - | - |
| 1777486641 | 12.22° C | 85% | 1018.6 hPa | 0 mm | - | - | - |
| 1777485737 | 12.22° C | 85% | 1018.4 hPa | 0 mm | - | - | - |
| 1777484836 | 12.22° C | 85% | 1018.2 hPa | 0 mm | - | - | - |
| 1777483935 | 12.78° C | 84% | 1018.2 hPa | 0 mm | - | - | - |
| 1777483034 | 12.78° C | 84% | 1018.1 hPa | 0 mm | - | - | - |
| 1777482138 | 12.78° C | 84% | 1018 hPa | 0 mm | - | - | - |
* Rain latest hour (hover to see other rain measurements)
** Current wind speed in m/s (hover to see current wind gust speed)